LPP3001 LIEO-LTFG

Flight info

Callsign LPP3001
Flight time N/A
Altitude 39000
Route ATNET DCT ENSOT DCT NILTO DCT TIGRA DCT PIKOS DCT BAMOS DCT VEXOL UG802 IMR UN135 AYT UT277 UTUSO
Aircraft E190/M-SDE3GILORVW/S

Departure

Time N/A
Airport Olbia Costa Smeralda Airport (LIEO)

Arrival

Time 2026-05-03 22:33
Airport Gazipaşa-Alanya Airport (LTFG)
Time Latitude Longitude Altitude Speed Heading
2026-05-03 20:15 40.27594 16.54070 39148 ft 473 kts 89°
2026-05-03 20:15 40.26918 16.62670 39158 ft 474 kts 89°
2026-05-03 20:16 40.26237 16.71230 39143 ft 473 kts 90°
2026-05-03 20:16 40.25550 16.79796 39144 ft 474 kts 90°
2026-05-03 20:17 40.24862 16.88300 39128 ft 474 kts 90°
2026-05-03 20:17 40.24161 16.96872 39131 ft 473 kts 90°
2026-05-03 20:18 40.23456 17.05430 39135 ft 473 kts 90°
2026-05-03 20:18 40.22745 17.13969 39135 ft 473 kts 90°
2026-05-03 20:19 40.22029 17.22500 39137 ft 473 kts 90°
2026-05-03 20:19 40.21307 17.31025 39136 ft 474 kts 90°
2026-05-03 20:20 40.20576 17.39569 39136 ft 472 kts 90°
2026-05-03 20:20 40.19842 17.48086 39135 ft 473 kts 90°
2026-05-03 20:21 40.19099 17.56632 39139 ft 473 kts 90°
2026-05-03 20:21 40.18351 17.65150 39137 ft 473 kts 90°
2026-05-03 20:22 40.17595 17.73697 39135 ft 473 kts 90°
2026-05-03 20:22 40.16832 17.82254 39135 ft 474 kts 90°
2026-05-03 20:23 40.16064 17.90787 39136 ft 474 kts 90°
2026-05-03 20:23 40.15288 17.99330 39130 ft 474 kts 90°
2026-05-03 20:24 40.14506 18.07875 39137 ft 473 kts 90°
2026-05-03 20:24 40.13723 18.16357 39132 ft 473 kts 90°
2026-05-03 20:25 40.12927 18.24927 39138 ft 475 kts 90°
2026-05-03 20:25 40.12127 18.33458 39114 ft 473 kts 90°
2026-05-03 20:26 40.11321 18.41980 39142 ft 475 kts 90°
2026-05-03 20:26 40.10508 18.50510 39103 ft 473 kts 90°
2026-05-03 20:27 40.09693 18.58999 39114 ft 472 kts 90°
2026-05-03 20:27 40.08870 18.67509 39118 ft 474 kts 91°
2026-05-03 20:28 40.08041 18.76002 39129 ft 473 kts 91°
2026-05-03 20:28 40.07200 18.84556 39084 ft 473 kts 91°
2026-05-03 20:29 40.06361 18.93026 39103 ft 474 kts 91°
2026-05-03 20:29 40.05548 19.01483 39108 ft 469 kts 87°
2026-05-03 20:30 40.05389 19.09932 39119 ft 468 kts 85°
2026-05-03 20:30 40.05167 19.18430 39116 ft 467 kts 85°
2026-05-03 20:31 40.04929 19.26873 39131 ft 467 kts 85°
2026-05-03 20:31 40.04685 19.35325 39112 ft 467 kts 85°
2026-05-03 20:32 40.04433 19.43792 39118 ft 467 kts 85°
2026-05-03 20:32 40.04176 19.52268 39109 ft 466 kts 85°
2026-05-03 20:33 40.03913 19.60711 39117 ft 467 kts 85°
2026-05-03 20:33 40.03645 19.69141 39112 ft 466 kts 86°
2026-05-03 20:34 40.03372 19.77521 39123 ft 469 kts 86°
2026-05-03 20:34 40.03091 19.85965 39137 ft 465 kts 86°
2026-05-03 20:35 40.02804 19.94386 39119 ft 464 kts 86°
2026-05-03 20:35 40.02511 20.02828 39119 ft 466 kts 86°
2026-05-03 20:36 40.02212 20.11260 39128 ft 467 kts 86°
2026-05-03 20:36 40.01907 20.19662 39141 ft 465 kts 86°
2026-05-03 20:37 40.01597 20.28065 39157 ft 465 kts 86°
2026-05-03 20:37 40.01279 20.36507 39144 ft 465 kts 86°
2026-05-03 20:38 40.00955 20.44945 39143 ft 465 kts 86°
2026-05-03 20:38 40.00626 20.53362 39154 ft 464 kts 86°
2026-05-03 20:39 40.00291 20.61742 39143 ft 463 kts 86°
2026-05-03 20:39 39.99953 20.70091 39136 ft 462 kts 87°
2026-05-03 20:40 39.99608 20.78445 39103 ft 461 kts 87°
2026-05-03 20:40 39.99256 20.86821 39134 ft 462 kts 87°
2026-05-03 20:41 39.98901 20.95140 39152 ft 463 kts 87°
2026-05-03 20:41 39.98535 21.03543 39151 ft 464 kts 87°
2026-05-03 20:42 39.98166 21.11900 39177 ft 464 kts 87°
2026-05-03 20:42 39.97790 21.20276 39171 ft 462 kts 88°
2026-05-03 20:43 39.97410 21.28599 39174 ft 463 kts 88°
2026-05-03 20:43 39.97023 21.36944 39169 ft 462 kts 87°
2026-05-03 20:44 39.96631 21.45282 39176 ft 462 kts 88°
2026-05-03 20:44 39.96072 21.53635 39158 ft 467 kts 95°
2026-05-03 20:45 39.93987 21.61761 39175 ft 477 kts 107°
2026-05-03 20:45 39.91439 21.69723 39149 ft 476 kts 108°
2026-05-03 20:46 39.88863 21.77727 39154 ft 476 kts 108°
2026-05-03 20:46 39.86287 21.85702 39139 ft 477 kts 108°
2026-05-03 20:47 39.83712 21.93651 39147 ft 474 kts 108°
2026-05-03 20:47 39.81156 22.01522 39142 ft 476 kts 108°
2026-05-03 20:48 39.78566 22.09472 39140 ft 476 kts 108°
2026-05-03 20:48 39.75988 22.17363 39149 ft 476 kts 108°
2026-05-03 20:49 39.73385 22.25309 39148 ft 478 kts 108°
2026-05-03 20:49 39.70789 22.33214 39154 ft 479 kts 108°
2026-05-03 20:50 39.68177 22.41139 39163 ft 478 kts 108°
2026-05-03 20:50 39.65560 22.49063 39154 ft 477 kts 108°
2026-05-03 20:51 39.62950 22.56940 39151 ft 477 kts 109°
2026-05-03 20:51 39.60331 22.64825 39141 ft 478 kts 109°
2026-05-03 20:52 39.57683 22.72773 39142 ft 478 kts 110°
2026-05-03 20:52 39.55041 22.80680 39144 ft 478 kts 109°
2026-05-03 20:53 39.52414 22.88519 39142 ft 478 kts 110°
2026-05-03 20:53 39.49755 22.96434 39133 ft 478 kts 110°
2026-05-03 20:54 39.47104 23.04305 39126 ft 477 kts 110°
2026-05-03 20:54 39.43126 23.16073 39144 ft 478 kts 110°
2026-05-03 20:55 39.40466 23.23915 39155 ft 478 kts 110°
2026-05-03 20:55 39.37797 23.31762 39154 ft 477 kts 110°
2026-05-03 20:56 39.35119 23.39612 39151 ft 476 kts 110°
2026-05-03 20:56 39.32451 23.47414 39153 ft 477 kts 110°
2026-05-03 20:57 39.29760 23.55262 39156 ft 476 kts 110°
2026-05-03 20:57 39.27095 23.63046 39153 ft 474 kts 110°
2026-05-03 20:58 39.24414 23.70859 39149 ft 474 kts 111°
2026-05-03 20:58 39.21754 23.78590 39148 ft 474 kts 111°
2026-05-03 20:59 39.19064 23.86388 39153 ft 475 kts 111°
2026-05-03 20:59 39.16393 23.94110 39148 ft 476 kts 111°
2026-05-03 21:00 39.14150 24.00579 39155 ft 476 kts 111°
2026-05-03 21:00 39.10999 24.09643 39149 ft 475 kts 111°
2026-05-03 21:01 39.08293 24.17403 39146 ft 474 kts 111°
2026-05-03 21:01 39.05597 24.25114 39140 ft 474 kts 111°
2026-05-03 21:02 39.02893 24.32827 39140 ft 475 kts 112°
2026-05-03 21:02 39.00172 24.40569 39136 ft 477 kts 112°
2026-05-03 21:03 38.97444 24.48311 39136 ft 476 kts 112°
2026-05-03 21:03 38.94707 24.56057 39131 ft 477 kts 112°
2026-05-03 21:04 38.91968 24.63789 39125 ft 478 kts 112°
2026-05-03 21:04 38.89210 24.71555 39122 ft 478 kts 113°
2026-05-03 21:05 38.86438 24.79339 39115 ft 479 kts 113°
2026-05-03 21:05 38.83669 24.87092 39114 ft 479 kts 113°
2026-05-03 21:06 38.80892 24.94849 39109 ft 478 kts 113°
2026-05-03 21:06 38.78114 25.02588 39106 ft 478 kts 113°
2026-05-03 21:07 38.75319 25.10354 39092 ft 479 kts 113°
2026-05-03 21:07 38.72549 25.18029 39076 ft 477 kts 113°
2026-05-03 21:08 38.69760 25.25738 39070 ft 477 kts 113°
2026-05-03 21:08 38.66977 25.33412 39068 ft 478 kts 113°
2026-05-03 21:09 38.64172 25.41126 39056 ft 479 kts 113°
2026-05-03 21:09 38.61374 25.48800 39057 ft 478 kts 113°
2026-05-03 21:10 38.58564 25.56487 39048 ft 479 kts 113°
2026-05-03 21:10 38.55747 25.64176 39042 ft 478 kts 113°
2026-05-03 21:11 38.52916 25.71879 39035 ft 478 kts 114°
2026-05-03 21:11 38.50085 25.79564 39028 ft 479 kts 114°
2026-05-03 21:12 38.47243 25.87259 39008 ft 479 kts 114°
2026-05-03 21:12 38.44404 25.94929 38995 ft 478 kts 114°
2026-05-03 21:13 38.41573 26.02555 38992 ft 479 kts 114°
2026-05-03 21:13 38.38736 26.10179 38997 ft 478 kts 114°
2026-05-03 21:14 38.35940 26.17846 38997 ft 479 kts 109°
2026-05-03 21:14 38.34534 26.26038 39011 ft 475 kts 91°
2026-05-03 21:15 38.34365 26.34421 39002 ft 475 kts 90°
2026-05-03 21:15 38.34067 26.42837 38995 ft 473 kts 91°
2026-05-03 21:16 38.33750 26.51183 38981 ft 473 kts 91°
2026-05-03 21:16 38.33426 26.59547 38971 ft 474 kts 91°
2026-05-03 21:17 38.33152 26.66509 38975 ft 473 kts 92°
2026-05-03 21:17 38.32767 26.76106 38965 ft 473 kts 92°
2026-05-03 21:18 38.32424 26.84488 38955 ft 473 kts 92°
2026-05-03 21:18 38.32077 26.92843 38948 ft 473 kts 92°
2026-05-03 21:19 38.31316 27.01093 38952 ft 474 kts 104°
2026-05-03 21:19 38.28943 27.08908 38941 ft 476 kts 113°
2026-05-03 21:20 38.26289 27.16639 38936 ft 475 kts 113°
2026-05-03 21:20 38.23650 27.24318 38935 ft 475 kts 113°
2026-05-03 21:21 38.20995 27.32019 38926 ft 476 kts 113°
2026-05-03 21:21 38.18343 27.39690 38923 ft 475 kts 113°
2026-05-03 21:22 38.15675 27.47392 38916 ft 475 kts 113°
2026-05-03 21:22 38.13004 27.55089 38905 ft 476 kts 113°
2026-05-03 21:23 38.10339 27.62747 38893 ft 476 kts 113°
2026-05-03 21:23 38.07645 27.70471 38878 ft 475 kts 114°
2026-05-03 21:24 38.04957 27.78157 38861 ft 476 kts 114°
2026-05-03 21:24 38.02184 27.85753 38863 ft 476 kts 118°
2026-05-03 21:25 37.99217 27.93237 38854 ft 478 kts 113°
2026-05-03 21:25 37.96575 28.00949 38847 ft 478 kts 114°
2026-05-03 21:26 37.93879 28.08698 38842 ft 479 kts 114°
2026-05-03 21:26 37.91194 28.16387 38832 ft 477 kts 114°
2026-05-03 21:27 37.88515 28.24040 38824 ft 476 kts 114°
2026-05-03 21:27 37.85823 28.31711 38811 ft 478 kts 114°
2026-05-03 21:28 37.83121 28.39388 38804 ft 477 kts 114°
2026-05-03 21:28 37.80384 28.47146 38796 ft 479 kts 114°
2026-05-03 21:29 37.77677 28.54801 38783 ft 478 kts 114°
2026-05-03 21:29 37.74942 28.62514 38788 ft 478 kts 114°
2026-05-03 21:30 37.72203 28.70216 38797 ft 478 kts 115°
2026-05-03 21:30 37.69435 28.77873 38801 ft 480 kts 115°
2026-05-03 21:31 37.66662 28.85520 38789 ft 480 kts 115°
2026-05-03 21:31 37.63886 28.93154 38789 ft 478 kts 115°
2026-05-03 21:32 37.61091 29.00824 38771 ft 481 kts 115°
2026-05-03 21:32 37.58311 29.08430 38765 ft 480 kts 115°
2026-05-03 21:33 37.55507 29.16085 38757 ft 480 kts 115°
2026-05-03 21:33 37.52720 29.23675 38750 ft 480 kts 115°
2026-05-03 21:34 37.49917 29.31289 38749 ft 480 kts 115°
2026-05-03 21:34 37.47097 29.38929 38751 ft 482 kts 116°
2026-05-03 21:35 37.44229 29.46538 38750 ft 481 kts 117°
2026-05-03 21:35 37.41313 29.54124 38749 ft 481 kts 117°
2026-05-03 21:36 37.38410 29.61664 38747 ft 481 kts 117°
2026-05-03 21:36 37.35496 29.69213 38753 ft 482 kts 117°
2026-05-03 21:37 37.32481 29.76775 38759 ft 481 kts 118°
2026-05-03 21:37 37.29424 29.84258 38749 ft 482 kts 118°
2026-05-03 21:38 37.26382 29.91687 38736 ft 482 kts 118°
2026-05-03 21:38 37.23325 29.99141 38721 ft 480 kts 118°
2026-05-03 21:39 37.20402 30.06685 38722 ft 482 kts 117°
2026-05-03 21:39 37.17470 30.14300 38733 ft 482 kts 117°
2026-05-03 21:40 37.14570 30.21808 38723 ft 481 kts 117°
2026-05-03 21:40 37.11644 30.29364 38739 ft 482 kts 117°
2026-05-03 21:41 37.08707 30.36932 38721 ft 481 kts 117°
2026-05-03 21:41 37.05781 30.44454 38727 ft 481 kts 117°
2026-05-03 21:42 37.02857 30.51951 38724 ft 481 kts 117°
2026-05-03 21:42 36.99918 30.59470 38718 ft 481 kts 117°
2026-05-03 21:43 36.96989 30.66947 38703 ft 479 kts 118°
2026-05-03 21:43 36.94083 30.74344 38710 ft 478 kts 118°
2026-05-03 21:44 36.90954 30.81658 38717 ft 477 kts 125°
2026-05-03 21:44 36.87394 30.88662 38706 ft 476 kts 125°
2026-05-03 21:45 36.83821 30.95681 38714 ft 477 kts 125°
2026-05-03 21:45 36.80270 31.02642 38721 ft 476 kts 125°
2026-05-03 21:46 36.76692 31.09642 38724 ft 476 kts 125°
2026-05-03 21:46 36.73116 31.16622 38725 ft 477 kts 125°
2026-05-03 21:47 36.69554 31.23562 38723 ft 477 kts 125°
2026-05-03 21:47 36.65974 31.30520 38727 ft 476 kts 125°
2026-05-03 21:48 36.62395 31.37465 38726 ft 476 kts 125°
2026-05-03 21:48 36.58831 31.44365 38721 ft 477 kts 126°
2026-05-03 21:49 36.55228 31.51324 38723 ft 479 kts 126°
2026-05-03 21:49 36.51628 31.58268 38727 ft 478 kts 126°
2026-05-03 21:50 36.48019 31.65211 38723 ft 478 kts 126°
2026-05-03 21:50 36.44378 31.72142 38719 ft 477 kts 130°
2026-05-03 21:51 36.39751 31.77881 38739 ft 468 kts 149°
2026-05-03 21:51 36.34004 31.81405 38737 ft 457 kts 168°
2026-05-03 21:52 36.27781 31.82380 38740 ft 446 kts 187°
2026-05-03 21:52 36.21820 31.80767 38739 ft 436 kts 206°
2026-05-03 21:53 36.16080 31.78498 38734 ft 442 kts 192°
2026-05-03 21:53 36.12989 31.78191 38204 ft 445 kts 188°
2026-05-03 21:53 36.09956 31.77670 37539 ft 433 kts 198°
2026-05-03 21:54 36.07127 31.76539 36969 ft 422 kts 207°
2026-05-03 21:54 36.04603 31.74871 36408 ft 412 kts 217°
2026-05-03 21:54 36.02385 31.72681 35842 ft 403 kts 227°
2026-05-03 21:54 36.00589 31.70088 35281 ft 397 kts 237°
2026-05-03 21:55 35.99237 31.67148 34720 ft 396 kts 247°
2026-05-03 21:55 35.98363 31.63927 34158 ft 400 kts 257°
2026-05-03 21:55 35.97994 31.60488 33590 ft 405 kts 266°
2026-05-03 21:55 35.98156 31.57021 33030 ft 409 kts 276°
2026-05-03 21:56 35.98833 31.53647 32505 ft 413 kts 286°
2026-05-03 21:56 36.00025 31.50408 31983 ft 418 kts 295°
2026-05-03 21:56 36.01708 31.47426 31447 ft 425 kts 306°
2026-05-03 21:56 36.03814 31.44837 30917 ft 432 kts 316°
2026-05-03 21:57 36.06276 31.42715 30392 ft 439 kts 325°
2026-05-03 21:57 36.09037 31.41120 29855 ft 441 kts 335°
2026-05-03 21:57 36.12002 31.40118 29325 ft 441 kts 345°
2026-05-03 21:57 36.14997 31.39435 28790 ft 436 kts 346°
2026-05-03 21:58 36.17989 31.38757 28239 ft 429 kts 346°
2026-05-03 21:58 36.20915 31.38093 27687 ft 423 kts 346°
2026-05-03 21:58 36.23769 31.37444 27155 ft 417 kts 346°
2026-05-03 21:58 36.26616 31.36796 26620 ft 411 kts 346°
2026-05-03 21:59 36.29408 31.36160 26085 ft 406 kts 347°
2026-05-03 21:59 36.32179 31.35527 25547 ft 400 kts 347°
2026-05-03 21:59 36.34884 31.34903 24991 ft 394 kts 345°
2026-05-03 21:59 36.37364 31.33605 24422 ft 382 kts 322°
2026-05-03 22:00 36.39148 31.31285 23835 ft 373 kts 307°
2026-05-03 22:00 36.40918 31.28949 23179 ft 371 kts 316°
2026-05-03 22:00 36.42890 31.26854 22504 ft 369 kts 319°
2026-05-03 22:00 36.44873 31.24888 21840 ft 366 kts 320°
2026-05-03 22:01 36.46866 31.22959 21186 ft 363 kts 321°
2026-05-03 22:01 36.48862 31.21044 20507 ft 359 kts 321°
2026-05-03 22:01 36.50818 31.19171 19839 ft 355 kts 321°
2026-05-03 22:01 36.52750 31.17322 19180 ft 350 kts 321°
2026-05-03 22:02 36.54665 31.15490 18518 ft 346 kts 321°
2026-05-03 22:02 36.56549 31.13686 17861 ft 343 kts 321°
2026-05-03 22:02 36.58447 31.11868 17183 ft 340 kts 321°
2026-05-03 22:02 36.60296 31.10096 16540 ft 338 kts 321°
2026-05-03 22:03 36.62138 31.08328 15897 ft 336 kts 321°
2026-05-03 22:03 36.63995 31.06547 15216 ft 332 kts 321°
2026-05-03 22:03 36.65794 31.04819 14574 ft 330 kts 321°
2026-05-03 22:03 36.67617 31.03068 13907 ft 328 kts 322°
2026-05-03 22:04 36.69392 31.01361 13277 ft 325 kts 322°
2026-05-03 22:04 36.71183 30.99638 12630 ft 323 kts 321°
2026-05-03 22:04 36.72935 30.97952 11988 ft 320 kts 321°
2026-05-03 22:04 36.74707 30.96245 11335 ft 318 kts 321°
2026-05-03 22:05 36.76440 30.94575 10690 ft 315 kts 321°
2026-05-03 22:05 36.78166 30.92911 10040 ft 312 kts 321°
2026-05-03 22:05 36.79865 30.91271 9395 ft 309 kts 322°
2026-05-03 22:05 36.81552 30.89642 8897 ft 301 kts 322°
2026-05-03 22:06 36.83184 30.88065 8939 ft 303 kts 322°
2026-05-03 22:06 36.84931 30.86377 9438 ft 323 kts 322°
2026-05-03 22:06 36.86747 30.84780 10449 ft 325 kts 334°
2026-05-03 22:06 36.88914 30.84225 11475 ft 310 kts 359°
2026-05-03 22:07 36.90966 30.84897 11560 ft 302 kts 29°
2026-05-03 22:07 36.92363 30.86709 11682 ft 282 kts 62°
2026-05-03 22:07 36.92854 30.88986 11810 ft 259 kts 70°
2026-05-03 22:07 36.93360 30.91008 11896 ft 243 kts 86°
2026-05-03 22:08 36.92911 30.93050 12095 ft 248 kts 127°
2026-05-03 22:08 36.91712 30.94530 12167 ft 241 kts 136°
2026-05-03 22:08 36.90541 30.96082 11546 ft 247 kts 130°
2026-05-03 22:08 36.89462 30.97721 11028 ft 245 kts 128°
2026-05-03 22:09 36.88430 30.99398 10510 ft 242 kts 127°
2026-05-03 22:09 36.87435 31.01075 9985 ft 240 kts 126°
2026-05-03 22:09 36.86464 31.02741 9475 ft 238 kts 125°
2026-05-03 22:10 36.84546 31.06070 8516 ft 230 kts 124°
2026-05-03 22:10 36.83655 31.07624 8375 ft 213 kts 124°
2026-05-03 22:10 36.82804 31.09110 8218 ft 209 kts 124°
2026-05-03 22:10 36.81968 31.10570 8004 ft 208 kts 124°
2026-05-03 22:11 36.81120 31.12050 7845 ft 208 kts 124°
2026-05-03 22:11 36.80284 31.13509 7718 ft 206 kts 124°
2026-05-03 22:11 36.79446 31.14972 7578 ft 205 kts 124°
2026-05-03 22:11 36.78619 31.16415 7427 ft 205 kts 124°
2026-05-03 22:12 36.77794 31.17853 7325 ft 204 kts 124°
2026-05-03 22:12 36.76958 31.19311 7240 ft 207 kts 124°
2026-05-03 22:12 36.76125 31.20763 7224 ft 205 kts 124°
2026-05-03 22:12 36.75295 31.22207 7163 ft 207 kts 124°
2026-05-03 22:13 36.74450 31.23678 7105 ft 205 kts 124°
2026-05-03 22:13 36.73618 31.25127 7051 ft 207 kts 124°
2026-05-03 22:13 36.72787 31.26572 6977 ft 206 kts 124°
2026-05-03 22:13 36.71944 31.28036 6907 ft 207 kts 124°
2026-05-03 22:14 36.71103 31.29499 6852 ft 206 kts 124°
2026-05-03 22:14 36.70272 31.30940 6789 ft 203 kts 123°
2026-05-03 22:14 36.69449 31.32371 6733 ft 203 kts 123°
2026-05-03 22:14 36.68625 31.33801 6674 ft 203 kts 123°
2026-05-03 22:15 36.67800 31.35232 6608 ft 204 kts 123°
2026-05-03 22:15 36.66978 31.36657 6521 ft 201 kts 123°
2026-05-03 22:15 36.66164 31.38069 6450 ft 201 kts 123°
2026-05-03 22:15 36.65348 31.39483 6386 ft 200 kts 123°
2026-05-03 22:16 36.64526 31.40908 6318 ft 205 kts 124°
2026-05-03 22:16 36.63693 31.42351 6276 ft 207 kts 124°
2026-05-03 22:16 36.62841 31.43826 6208 ft 208 kts 126°
2026-05-03 22:16 36.61993 31.45293 6141 ft 209 kts 127°
2026-05-03 22:17 36.61144 31.46759 6071 ft 208 kts 127°
2026-05-03 22:17 36.60318 31.48190 6002 ft 201 kts 129°
2026-05-03 22:17 36.59504 31.49596 5936 ft 198 kts 129°
2026-05-03 22:17 36.58691 31.50996 5878 ft 201 kts 128°
2026-05-03 22:18 36.57849 31.52445 5835 ft 207 kts 126°
2026-05-03 22:18 36.57009 31.53895 5778 ft 207 kts 125°
2026-05-03 22:18 36.56168 31.55345 5711 ft 207 kts 124°
2026-05-03 22:18 36.55327 31.56799 5643 ft 209 kts 125°
2026-05-03 22:19 36.54476 31.58266 5583 ft 206 kts 127°
2026-05-03 22:19 36.53638 31.59710 5521 ft 202 kts 127°
2026-05-03 22:19 36.52827 31.61108 5458 ft 200 kts 129°
2026-05-03 22:19 36.52021 31.62495 5390 ft 194 kts 129°
2026-05-03 22:20 36.51232 31.63851 5326 ft 192 kts 129°
2026-05-03 22:20 36.50439 31.65214 5271 ft 194 kts 130°
2026-05-03 22:20 36.49652 31.66566 5208 ft 195 kts 130°
2026-05-03 22:20 36.48851 31.67940 5142 ft 195 kts 129°
2026-05-03 22:21 36.48052 31.69310 5080 ft 199 kts 128°
2026-05-03 22:21 36.47222 31.70734 5018 ft 203 kts 127°
2026-05-03 22:21 36.46391 31.72160 4958 ft 206 kts 125°
2026-05-03 22:21 36.45541 31.73622 4897 ft 207 kts 126°
2026-05-03 22:22 36.44702 31.75063 4839 ft 205 kts 128°
2026-05-03 22:22 36.43872 31.76490 4775 ft 202 kts 130°
2026-05-03 22:22 36.43058 31.77886 4710 ft 197 kts 132°
2026-05-03 22:22 36.42256 31.79257 4638 ft 193 kts 132°
2026-05-03 22:23 36.41473 31.80594 4569 ft 193 kts 131°
2026-05-03 22:23 36.40684 31.81945 4508 ft 192 kts 132°
2026-05-03 22:23 36.39916 31.83260 4431 ft 183 kts 131°
2026-05-03 22:23 36.39189 31.84505 4317 ft 174 kts 133°
2026-05-03 22:24 36.38482 31.85712 4231 ft 171 kts 132°
2026-05-03 22:24 36.37777 31.86916 4165 ft 172 kts 133°
2026-05-03 22:24 36.37069 31.88124 4107 ft 173 kts 133°
2026-05-03 22:24 36.36363 31.89328 4044 ft 174 kts 133°
2026-05-03 22:25 36.35653 31.90539 3977 ft 172 kts 133°
2026-05-03 22:25 36.34945 31.91747 3916 ft 173 kts 133°
2026-05-03 22:25 36.34232 31.92962 3861 ft 175 kts 132°
2026-05-03 22:25 36.33511 31.94193 3801 ft 174 kts 133°
2026-05-03 22:26 36.32795 31.95413 3739 ft 174 kts 133°
2026-05-03 22:26 36.32082 31.96629 3672 ft 173 kts 134°
2026-05-03 22:26 36.31376 31.97833 3657 ft 165 kts 134°
2026-05-03 22:26 36.30707 31.98973 3651 ft 163 kts 134°
2026-05-03 22:27 36.30044 32.00100 3589 ft 164 kts 134°
2026-05-03 22:27 36.29370 32.01247 3523 ft 160 kts 134°
2026-05-03 22:27 36.28728 32.02341 3455 ft 155 kts 134°
2026-05-03 22:27 36.28081 32.03438 3395 ft 159 kts 135°
2026-05-03 22:28 36.27427 32.04549 3338 ft 160 kts 135°
2026-05-03 22:28 36.26822 32.05733 3255 ft 166 kts 115°
2026-05-03 22:28 36.26849 32.07177 3196 ft 173 kts 79°
2026-05-03 22:28 36.27150 32.08620 3111 ft 174 kts 82°
2026-05-03 22:29 36.27405 32.10066 2924 ft 166 kts 84°
2026-05-03 22:29 36.27620 32.11447 2727 ft 162 kts 85°
2026-05-03 22:29 36.27816 32.12824 2557 ft 162 kts 85°
2026-05-03 22:29 36.28003 32.14219 2400 ft 165 kts 86°
2026-05-03 22:30 36.28186 32.15636 2242 ft 167 kts 85°
2026-05-03 22:30 36.28363 32.17040 2097 ft 164 kts 86°
2026-05-03 22:30 36.28536 32.18423 2054 ft 159 kts 88°
2026-05-03 22:30 36.28701 32.19784 2060 ft 157 kts 88°
2026-05-03 22:31 36.28865 32.21115 1987 ft 150 kts 85°
2026-05-03 22:31 36.29099 32.22335 1673 ft 145 kts 80°
2026-05-03 22:31 36.29339 32.23543 1244 ft 146 kts 81°
2026-05-03 22:31 36.29496 32.24764 822 ft 142 kts 95°
2026-05-03 22:32 36.29497 32.25948 503 ft 136 kts 91°
2026-05-03 22:32 36.29607 32.27119 254 ft 133 kts 90°
2026-05-03 22:32 36.29727 32.28221 106 ft 132 kts 86°
2026-05-03 22:32 36.29852 32.29354 89 ft 126 kts 86°
2026-05-03 22:33 36.29952 32.30251 104 ft 75 kts 80°
2026-05-03 22:33 36.29999 32.30633 123 ft 16 kts 83°
2026-05-03 22:33 36.30001 32.30654 124 ft 0 kts 82°
2026-05-03 22:33 36.30010 32.30731 126 ft 14 kts 83°
2026-05-03 22:34 36.30025 32.30844 130 ft 14 kts 79°
2026-05-03 22:34 36.30043 32.30939 134 ft 9 kts 63°
2026-05-03 22:34 36.30070 32.31013 137 ft 8 kts 104°
2026-05-03 22:34 36.30036 32.30977 135 ft 13 kts 264°
2026-05-03 22:35 36.30024 32.30857 130 ft 14 kts 261°
2026-05-03 22:35 36.30008 32.30727 126 ft 15 kts 261°
2026-05-03 22:35 36.29991 32.30588 121 ft 15 kts 262°
2026-05-03 22:35 36.29975 32.30446 114 ft 18 kts 260°
2026-05-03 22:36 36.29960 32.30323 107 ft 7 kts 259°
2026-05-03 22:36 36.29958 32.30306 106 ft 3 kts 259°
2026-05-03 22:36 36.29950 32.30255 104 ft 8 kts 259°
2026-05-03 22:36 36.29937 32.30174 100 ft 5 kts 245°
2026-05-03 22:37 36.29916 32.30152 99 ft 4 kts 189°
2026-05-03 22:37 36.29897 32.30153 99 ft 4 kts 175°
2026-05-03 22:37 36.29889 32.30154 99 ft 3 kts 171°
2026-05-03 22:37 36.29868 32.30157 99 ft 4 kts 176°
2026-05-03 22:38 36.29832 32.30155 99 ft 4 kts 190°
2026-05-03 22:38 36.29805 32.30140 99 ft 2 kts 208°
2026-05-03 22:38 36.29803 32.30138 99 ft 0 kts 208°